EWG2455 EDDS-EDDH

Flight info

Callsign EWG2455
Flight time N/A
Altitude 35000
Route OKIBA4H OKIBA N851 RIMKI Z99 LOHRE DCT MASEK DCT ELNAT/N0445F340 P605 NOLGO NOLGO6A
Aircraft A320/M-SDE3FGHIRWY/LB1

Departure

Time 2026-04-30 18:36
Airport Stuttgart Airport (EDDS)

Arrival

Time N/A
Airport Hamburg Helmut Schmidt Airport (EDDH)
Time Latitude Longitude Altitude Speed Heading
2026-04-30 18:08 48.68927 9.19581 1315 ft 0 kts 344°
2026-04-30 18:27 48.68909 9.19589 1313 ft 4 kts 344°
2026-04-30 18:28 48.68863 9.19607 1310 ft 4 kts
2026-04-30 18:28 48.68846 9.19590 1310 ft 3 kts 74°
2026-04-30 18:28 48.68842 9.19566 1310 ft 0 kts 74°
2026-04-30 18:31 48.68861 9.19666 1308 ft 10 kts 73°
2026-04-30 18:32 48.68882 9.19860 1302 ft 0 kts 118°
2026-04-30 18:32 48.68881 9.19862 1302 ft 0 kts 124°
2026-04-30 18:32 48.68874 9.19871 1302 ft 4 kts 139°
2026-04-30 18:33 48.68823 9.19914 1297 ft 12 kts 147°
2026-04-30 18:33 48.68732 9.20060 1289 ft 0 kts 123°
2026-04-30 18:34 48.68731 9.20062 1289 ft 0 kts 122°
2026-04-30 18:35 48.68709 9.20129 1290 ft 15 kts 108°
2026-04-30 18:35 48.68683 9.20309 1277 ft 18 kts 99°
2026-04-30 18:35 48.68680 9.20518 1273 ft 23 kts 83°
2026-04-30 18:36 48.69093 9.22780 1269 ft 171 kts 75°
2026-04-30 18:36 48.69317 9.23952 1738 ft 168 kts 76°
2026-04-30 18:36 48.69920 9.27354 2971 ft 178 kts 77°
2026-04-30 18:37 48.70271 9.29263 3233 ft 198 kts 76°
2026-04-30 18:37 48.70663 9.31345 3565 ft 219 kts 76°
2026-04-30 18:37 48.71104 9.33669 4035 ft 237 kts 76°
2026-04-30 18:37 48.71569 9.36098 4822 ft 244 kts 76°
2026-04-30 18:38 48.72046 9.38595 5649 ft 249 kts 76°
2026-04-30 18:38 48.72533 9.41138 6452 ft 254 kts 76°
2026-04-30 18:38 48.73032 9.43741 7209 ft 260 kts 75°
2026-04-30 18:38 48.73540 9.46395 8013 ft 264 kts 75°
2026-04-30 18:39 48.74156 9.49027 8810 ft 269 kts 62°
2026-04-30 18:39 48.75381 9.51209 9584 ft 277 kts 39°
2026-04-30 18:39 48.77145 9.52448 10362 ft 286 kts 14°
2026-04-30 18:39 48.79177 9.52551 10905 ft 303 kts 360°
2026-04-30 18:40 48.81364 9.52333 11101 ft 326 kts 358°
2026-04-30 18:40 48.83688 9.52060 11435 ft 342 kts 358°
2026-04-30 18:40 48.86055 9.51767 12060 ft 347 kts 358°
2026-04-30 18:40 48.88475 9.51470 12757 ft 351 kts 358°
2026-04-30 18:41 48.90920 9.51180 13462 ft 354 kts 359°
2026-04-30 18:41 48.93385 9.50892 14172 ft 356 kts 358°
2026-04-30 18:41 48.95116 9.50512 14348 ft 370 kts 351°
2026-04-30 18:42 48.97186 9.49517 14453 ft 389 kts 340°
2026-04-30 18:42 49.02255 9.45776 14810 ft 416 kts 337°
2026-04-30 18:42 49.04840 9.43866 15239 ft 420 kts 337°
2026-04-30 18:45 49.32937 9.30704 19639 ft 435 kts
2026-04-30 18:45 49.35962 9.30618 19995 ft 435 kts
2026-04-30 18:45 49.38982 9.31046 20350 ft 435 kts
2026-04-30 18:46 49.42000 9.31495 20708 ft 437 kts
2026-04-30 18:46 49.44993 9.31939 21061 ft 439 kts
2026-04-30 18:46 49.48041 9.32390 21399 ft 441 kts
2026-04-30 18:46 49.51103 9.32848 21718 ft 443 kts
2026-04-30 18:47 49.54179 9.33309 22038 ft 445 kts
2026-04-30 18:47 49.57262 9.33769 22352 ft 447 kts
2026-04-30 18:47 49.60367 9.34232 22637 ft 449 kts
2026-04-30 18:47 49.63487 9.34695 22892 ft 452 kts
2026-04-30 18:48 49.66628 9.35162 23182 ft 454 kts
2026-04-30 18:48 49.69779 9.35630 23465 ft 455 kts
2026-04-30 18:48 49.72933 9.36101 23735 ft 457 kts
2026-04-30 18:48 49.76071 9.36837 23990 ft 456 kts 16°
2026-04-30 18:49 49.79168 9.38014 24204 ft 457 kts 16°
2026-04-30 18:49 49.82276 9.39207 24438 ft 458 kts 17°
2026-04-30 18:49 49.85323 9.40382 24664 ft 460 kts 17°
2026-04-30 18:49 49.88433 9.41585 24894 ft 461 kts 17°
2026-04-30 18:50 49.91544 9.42789 25120 ft 462 kts 17°
2026-04-30 18:50 49.94661 9.43998 25343 ft 463 kts 17°
2026-04-30 18:50 49.97795 9.45211 25554 ft 464 kts 17°
2026-04-30 18:50 50.00937 9.46422 25758 ft 465 kts 17°
2026-04-30 18:51 50.04077 9.47629 25973 ft 467 kts 17°
2026-04-30 18:51 50.07261 9.48713 26218 ft 469 kts 10°
2026-04-30 18:51 50.10463 9.49219 27104 ft 453 kts
2026-04-30 18:51 50.13553 9.49708 27990 ft 442 kts
2026-04-30 18:52 50.16592 9.50219 28559 ft 437 kts
2026-04-30 18:52 50.19606 9.50749 29010 ft 435 kts
2026-04-30 18:52 50.22608 9.51283 29453 ft 433 kts
2026-04-30 18:52 50.25596 9.51807 29867 ft 432 kts
2026-04-30 18:53 50.28585 9.52320 30266 ft 431 kts
2026-04-30 18:53 50.31577 9.52825 30531 ft 433 kts
2026-04-30 18:53 50.34541 9.53324 30762 ft 434 kts
2026-04-30 18:53 50.37543 9.53826 31066 ft 434 kts
2026-04-30 18:54 50.40539 9.54326 31415 ft 432 kts
2026-04-30 18:54 50.43526 9.54826 31759 ft 431 kts
2026-04-30 18:54 50.46507 9.55329 32102 ft 429 kts
2026-04-30 18:54 50.49476 9.55832 32438 ft 428 kts
2026-04-30 18:55 50.52436 9.56332 32752 ft 428 kts
2026-04-30 18:55 50.58348 9.57336 33427 ft 426 kts
2026-04-30 18:55 50.61283 9.57838 33755 ft 425 kts
2026-04-30 18:56 50.67155 9.58839 34427 ft 422 kts
2026-04-30 18:56 50.70075 9.59342 34717 ft 421 kts
2026-04-30 18:56 50.72991 9.59845 34992 ft 420 kts
2026-04-30 18:57 50.78795 9.60913 35393 ft 419 kts
2026-04-30 18:57 50.84553 9.62056 35417 ft 417 kts
2026-04-30 18:58 50.93150 9.63768 35415 ft 416 kts
2026-04-30 18:59 51.01774 9.65446 35420 ft 417 kts
2026-04-30 19:00 51.10409 9.67121 34559 ft 416 kts
2026-04-30 19:00 51.13294 9.67684 34393 ft 418 kts
2026-04-30 19:01 51.24881 9.69896 34431 ft 422 kts
2026-04-30 19:02 51.33703 9.71263 34421 ft 423 kts
2026-04-30 19:03 51.45379 9.73132 34422 ft 423 kts
2026-04-30 19:04 51.57086 9.75281 34428 ft 423 kts
2026-04-30 19:05 51.68787 9.77535 34439 ft 423 kts
2026-04-30 19:06 51.80445 9.79754 34442 ft 423 kts
2026-04-30 19:06 51.89228 9.81442 34441 ft 424 kts
2026-04-30 19:07 51.98024 9.83135 34377 ft 426 kts
2026-04-30 19:08 52.03926 9.84275 33265 ft 433 kts
2026-04-30 19:08 52.10022 9.85473 30998 ft 444 kts
2026-04-30 19:08 52.13027 9.86061 29807 ft 438 kts
2026-04-30 19:09 52.18998 9.87226 27363 ft 425 kts
2026-04-30 19:09 52.21918 9.87794 26267 ft 419 kts
2026-04-30 19:09 52.24773 9.88398 25776 ft 411 kts 12°
2026-04-30 19:10 52.30290 9.90734 26129 ft 409 kts 17°
2026-04-30 19:10 52.35801 9.93139 26420 ft 409 kts 16°
2026-04-30 19:11 52.38518 9.94326 26438 ft 409 kts 16°
2026-04-30 19:11 52.44015 9.96745 26441 ft 409 kts 16°
2026-04-30 19:11 52.46754 9.97957 26442 ft 408 kts 16°
2026-04-30 19:12 52.49501 9.99175 26440 ft 408 kts 16°
2026-04-30 19:12 52.52220 10.00384 26003 ft 403 kts 17°
2026-04-30 19:12 52.54917 10.01581 25427 ft 399 kts 17°
2026-04-30 19:13 52.60229 10.03943 24325 ft 391 kts 17°
2026-04-30 19:13 52.65438 10.06271 23144 ft 384 kts 17°
2026-04-30 19:13 52.67973 10.07407 22560 ft 381 kts 17°
2026-04-30 19:14 52.70517 10.08549 21979 ft 378 kts 17°
2026-04-30 19:14 52.73047 10.09682 21411 ft 375 kts 18°
2026-04-30 19:14 52.75555 10.10808 20859 ft 373 kts 18°
2026-04-30 19:14 52.78088 10.11693 20312 ft 373 kts
2026-04-30 19:15 52.80685 10.11887 19772 ft 373 kts
2026-04-30 19:15 52.85860 10.12047 18676 ft 371 kts
2026-04-30 19:15 52.88444 10.12129 18082 ft 370 kts
2026-04-30 19:16 52.91017 10.12213 17755 ft 370 kts
2026-04-30 19:16 52.93594 10.12299 17467 ft 370 kts
2026-04-30 19:16 52.98721 10.12468 16901 ft 367 kts
2026-04-30 19:17 53.01245 10.12553 16625 ft 366 kts
2026-04-30 19:17 53.06332 10.12723 16072 ft 364 kts
2026-04-30 19:17 53.08863 10.12806 15801 ft 363 kts
2026-04-30 19:18 53.12233 10.12916 15443 ft 361 kts
2026-04-30 19:18 53.16408 10.13057 15002 ft 360 kts
2026-04-30 19:18 53.18915 10.13143 14743 ft 359 kts
2026-04-30 19:19 53.21405 10.13227 14472 ft 358 kts
2026-04-30 19:19 53.23873 10.13308 14204 ft 351 kts
2026-04-30 19:19 53.28614 10.13459 13636 ft 336 kts
2026-04-30 19:20 53.30942 10.13531 13352 ft 333 kts
2026-04-30 19:20 53.33251 10.13606 13064 ft 331 kts
2026-04-30 19:20 53.37842 10.13355 12517 ft 333 kts 350°
2026-04-30 19:21 53.40035 10.11999 12240 ft 339 kts 335°
2026-04-30 19:21 53.43500 10.06763 12009 ft 326 kts 315°
2026-04-30 19:22 53.46450 10.01272 12010 ft 312 kts 315°
2026-04-30 19:22 53.51653 9.98229 12127 ft 253 kts 19°
2026-04-30 19:23 53.55593 10.03296 12432 ft 241 kts 65°